Simultaneous Nadir Overpasses (SNOs) Predictions

Prediction of SNOs between NOAA-20 and NOAA-19 Satellite Orbit:

Table of predicted SNOs for the next 14.0 days since TLE Epoch: 7/30/2022
Index Date (NOAA-20) Time (NOAA-20) Lat,Lon (NOAA-20) SZA (NOAA-20 ) Date (NOAA-19) Time (NOAA-19) Lat,Lon (NOAA-19) SZA (NOAA-19 ) Distance(km) Time Diff (sec)
1 08/01/2022 15:08:18 76.49, -65.20 59.38 08/01/2022 15:07:07 76.47, -66.55 59.52 35.21 71
2 08/01/2022 15:59:06 -76.65, 101.50 120.41 08/01/2022 15:58:07 -76.65, 101.40 120.38 2.64 59
3 08/01/2022 16:49:52 76.67, -91.28 59.63 08/01/2022 16:49:02 76.68, -91.20 59.65 2.09 50
4 08/01/2022 17:40:36 -76.66, 76.10 120.38 08/01/2022 17:40:06 -76.68, 76.05 120.35 2.81 30
5 08/01/2022 18:31:22 76.68,-116.68 59.66 08/01/2022 18:31:02 76.67,-116.73 59.66 1.71 20
6 08/01/2022 19:22:07 -76.71, 50.52 120.30 08/01/2022 19:22:06 -76.67, 50.52 120.33 4.02 1
7 08/01/2022 20:12:52 76.69,-142.08 59.68 08/01/2022 20:13:01 76.71,-142.08 59.70 1.93 9
8 08/01/2022 21:03:37 -76.72, 25.12 120.27 08/01/2022 21:04:05 -76.71, 25.17 120.30 1.55 28
9 08/01/2022 21:54:22 76.70,-167.48 59.71 08/01/2022 21:55:01 76.70,-167.61 59.71 3.27 39
10 08/01/2022 22:45:07 -76.72, -0.28 120.25 08/01/2022 22:46:05 -76.70, -0.36 120.28 3.18 58
11 08/01/2022 23:35:53 76.75, 166.94 59.79 08/01/2022 23:37:00 76.73, 167.04 59.75 2.97 67



Historial Predications of SNOs between NOAA-20 and NOAA-19
